Theta_e
331 329 328 327 326 325 324 322 321 319 319 319 319 319 319 319 319 320 320 319 318 319 318 318 317 316 316 316 316 316 317 317 319 318 316 316 316 315 316 316 316 315 315
329 328 327 325 324 322 321 321 320 320 319 319 319 318 318 317 318 318 318 318 317 317 316 315 315 315 315 315 316 316 317 316 315 316 314 315 314 314 315 315 315 314 314
326 324 323 323 322 322 321 320 320 319 319 318 318 317 317 317 317 317 316 315 315 315 315 314 315 314 314 315 314 314 314 313 313 314 313 313 313 314 314 314 314 314 314
322 323 322 322 322 321 321 320 319 318 318 317 317 316 316 316 316 314 312 312 312 313 313 313 314 314 314 314 312 312 311 311 310 311 311 311 311 311 312 313 314 313 313
321 321 321 320 319 319 318 318 317 317 316 316 315 315 315 313 306 306 306 307 308 310 312 313 313 313 311 310 308 309 308 308 308 309 310 310 310 310 311 311 312 312 312
317 317 317 316 316 316 316 315 315 315 315 314 313 312 312 305 305 304 303 302 305 309 311 312 311 311 310 308 306 305 305 306 308 309 310 311 310 310 309 308 307 308 311
314 313 313 313 313 313 313 314 313 312 312 311 311 310 308 303 301 302 302 301 306 309 310 310 308 308 307 303 304 304 310 311 310 309 309 308 307 306 305 304 305 306 309
311 311 311 311 312 312 311 310 309 309 310 310 309 308 305 300 299 299 299 303 307 308 307 307 306 307 304 300 300 308 309 309 308 304 304 303 303 302 302 303 304 305 308
308 309 309 310 310 310 309 308 308 308 308 308 307 306 304 299 298 296 296 301 304 304 304 305 305 302 300 298 300 306 306 306 302 302 303 303 302 303 304 306 307 308 309
307 308 308 308 308 307 307 306 306 306 306 305 304 303 300 300 296 293 293 297 299 298 303 303 302 300 298 297 297 303 301 300 299 303 304 303 302 302 302 303 302 304 309
306 307 307 306 306 306 304 304 304 303 302 301 300 300 300 298 296 292 291 292 293 295 301 301 300 296 296 295 295 297 296 297 301 301 301 301 300 300 299 298 297 298 302
306 306 306 305 304 304 304 303 303 303 304 303 303 302 301 299 296 291 290 291 290 293 296 297 295 293 294 296 296 296 297 298 299 297 296 297 296 296 295 293 293 297 299
305 305 304 303 303 302 302 300 298 298 299 299 300 301 300 299 296 290 290 291 289 291 293 294 295 295 295 296 297 299 299 299 298 298 295 294 293 292 291 290 291 294 297
304 303 302 303 302 300 299 297 293 292 293 294 295 297 296 294 290 288 290 291 291 292 293 296 297 298 298 297 298 297 298 297 297 297 294 291 291 290 289 289 291 292 295
303 303 303 302 302 300 297 295 294 289 288 289 289 292 290 288 286 286 287 288 289 291 293 297 297 296 295 295 295 295 295 295 295 296 292 290 289 288 288 288 290 292 295
301 300 301 301 300 299 298 294 291 289 288 287 286 286 288 286 286 287 289 289 290 292 295 294 294 294 294 294 294 294 294 294 294 294 290 288 287 287 287 288 290 292 294
300 300 299 299 298 298 297 297 296 289 287 287 287 287 287 287 288 289 290 291 290 292 293 293 293 293 293 293 293 293 293 293 293 292 288 286 286 286 286 287 289 291 293
297 296 297 297 297 296 296 295 295 295 295 292 289 289 288 289 289 289 290 292 292 292 292 292 292 292 292 292 293 292 292 292 292 291 287 286 286 285 286 287 290 291 293
297 297 296 294 294 294 294 294 294 294 294 293 291 290 290 290 291 291 291 291 292 292 292 292 291 291 291 292 292 292 291 291 290 289 287 286 286 285 287 289 289 291 293
292 292 294 294 294 294 294 294 293 293 293 293 292 289 289 292 292 291 291 291 291 291 291 291 291 291 291 291 291 290 290 290 289 288 287 287 286 286 288 289 290 291 295
293 293 293 293 293 293 293 293 293 293 292 293 292 289 289 290 291 291 291 291 291 291 291 291 291 290 290 290 290 289 289 288 286 286 288 287 287 288 289 289 289 291 294
294 293 293 293 292 292 292 292 292 292 292 291 291 291 290 291 291 291 290 290 290 290 290 290 290 290 290 290 289 287 287 285 284 285 286 286 289 290 289 289 289 291 292
293 293 293 292 292 292 292 292 291 291 291 291 291 290 290 290 290 290 290 289 289 289 289 289 289 289 289 289 288 286 285 283 282 284 284 287 290 291 290 288 289 290 292
293 292 292 291 290 291 291 291 291 290 290 290 290 290 290 290 289 289 289 289 288 289 288 288 288 288 288 288 287 284 283 281 281 283 284 287 291 291 290 288 289 289 291
292 292 291 291 290 290 290 290 290 289 289 289 289 289 289 289 288 288 288 288 287 288 288 288 288 288 287 287 285 282 281 281 281 284 284 287 290 290 289 289 289 288 289
291 291 290 290 290 290 290 289 289 288 288 288 288 288 288 288 287 287 287 286 286 287 286 287 286 286 286 285 282 280 280 281 281 284 287 288 289 289 288 290 288 288 288
Wind_Speed
21 22 21 19 17 17 18 16 17 13 10 6 3 1 2 3 6 8 9 10 9 11 12 13 13 14 14 14 15 16 17 18 12 23 27 30 31 32 31 30 30 30 30
24 24 22 20 18 17 16 16 13 10 7 5 2 2 4 5 8 9 10 10 11 13 13 13 15 15 17 16 17 15 17 18 17 17 26 27 28 28 27 30 29 27 29
25 24 22 20 18 16 15 13 9 7 5 3 2 4 5 7 9 9 9 11 13 13 14 14 15 15 15 14 15 17 17 17 19 20 24 27 27 28 28 28 27 27 27
23 22 20 18 15 14 12 10 7 4 2 1 3 5 6 7 9 6 10 13 15 15 15 15 15 13 12 16 18 15 16 19 21 22 22 23 24 27 26 25 24 22 24
22 20 18 16 14 13 10 8 5 2 1 3 5 5 6 6 7 10 13 16 17 17 16 15 13 15 17 12 12 16 16 21 22 22 21 22 22 21 22 24 25 25 25
20 19 16 13 12 10 8 5 3 2 3 5 5 5 7 5 11 15 20 19 17 16 15 14 13 14 12 14 16 20 22 24 24 21 23 19 24 21 24 23 25 23 8
19 17 14 12 12 10 9 8 7 7 5 5 5 7 7 7 13 18 23 17 15 15 14 11 13 12 12 17 23 21 19 17 19 17 21 23 27 27 28 27 24 22 22
18 16 14 12 11 9 10 8 7 6 5 5 5 6 6 10 18 23 20 16 14 13 14 12 10 11 14 22 21 18 17 18 16 19 21 27 27 31 29 29 30 26 23
16 15 12 11 10 10 11 8 7 6 6 7 6 8 8 10 19 23 21 15 14 13 13 11 7 10 19 18 18 17 20 19 23 22 25 24 25 25 25 26 20 16 7
14 12 13 12 11 10 9 9 8 7 7 6 7 8 10 9 16 20 20 14 13 14 10 8 5 17 17 16 16 17 21 24 26 28 27 24 21 20 22 20 23 19 16
14 12 12 12 11 10 10 10 9 8 7 6 5 4 5 8 11 19 20 15 15 14 12 10 12 20 14 14 14 13 18 20 23 26 27 25 24 23 23 24 26 24 21
14 13 12 11 11 10 9 8 8 6 3 2 1 3 5 7 12 18 19 19 18 13 12 13 15 17 19 16 16 20 19 19 23 26 28 28 30 31 31 32 33 28 28
14 13 11 11 9 9 10 11 11 11 10 9 10 9 9 10 13 20 19 19 21 14 11 11 16 15 15 15 18 19 17 18 21 24 28 29 30 31 32 31 30 26 25
12 11 10 9 11 11 12 13 14 14 12 12 12 12 12 14 16 18 18 18 18 16 18 15 14 16 15 17 18 20 20 21 22 22 28 30 31 32 31 30 30 30 27
10 9 8 9 8 12 12 12 12 14 16 14 13 12 13 16 17 16 15 17 20 19 19 14 16 17 19 20 21 22 23 24 25 25 28 32 32 31 31 31 27 26 19
10 9 7 8 9 9 11 12 14 13 16 21 21 16 11 17 19 17 16 15 24 21 14 17 18 19 20 22 23 24 25 25 27 27 30 32 31 31 32 30 25 22 21
10 9 9 9 10 9 9 8 9 6 9 15 21 21 19 19 24 22 20 17 19 20 19 20 20 21 22 23 23 24 26 27 28 27 31 32 32 31 31 29 27 24 23
12 10 10 10 10 11 11 10 10 11 9 7 11 15 18 16 17 22 22 17 18 20 19 19 20 22 23 23 24 25 27 28 30 28 33 33 33 32 32 29 28 26 25
10 11 11 12 11 11 11 10 10 10 10 10 12 15 16 13 17 18 19 20 19 20 20 20 21 22 23 24 25 26 27 28 31 30 33 33 34 34 32 32 30 29 27
14 12 11 11 10 11 11 11 10 10 11 11 12 19 16 16 17 19 19 19 19 19 20 20 21 22 24 25 26 27 29 30 32 33 34 35 35 32 34 35 32 32 29
12 12 11 11 12 11 11 11 10 10 11 11 11 14 17 11 16 17 18 19 19 20 20 20 20 22 24 24 27 29 29 31 33 33 34 37 38 35 37 35 35 31 32
11 11 11 11 11 12 10 10 10 10 11 12 12 12 15 15 16 16 17 18 18 18 19 19 20 22 24 24 26 29 29 32 34 34 35 37 35 37 38 37 33 32 30
10 10 10 10 10 8 9 9 11 11 11 12 12 13 15 15 15 16 16 17 18 18 19 19 19 22 23 23 24 28 28 32 34 32 35 34 34 38 36 39 36 36 33
10 10 10 10 10 9 10 9 9 8 10 12 12 13 14 14 15 16 16 17 18 18 19 18 18 21 23 23 23 29 27 31 30 30 31 31 31 34 34 34 34 34 31
10 10 10 9 9 9 8 9 10 11 11 12 12 13 13 14 15 15 16 17 18 18 19 18 19 22 23 21 24 31 34 36 33 29 29 27 31 32 35 32 37 35 34
9 9 8 8 9 9 9 10 10 11 11 12 12 13 13 13 14 15 16 18 19 18 19 19 20 22 22 21 26 35 37 35 34 29 30 28 31 33 35 32 37 35 36
Wind_Direction
129 128 126 123 119 117 112 112 113 125 143 141 122 137 283 301 310 318 311 300 300 303 305 302 309 299 297 302 300 296 297 297 302 296 298 298 300 299 300 301 302 303 299
126 122 122 120 116 111 113 113 123 132 132 132 125 262 289 316 312 309 306 310 310 315 312 306 295 309 313 302 286 281 292 298 294 290 291 295 296 298 299 301 300 299 297
120 117 114 112 111 112 111 113 120 123 126 153 214 282 319 317 308 303 313 324 314 312 303 306 304 310 304 302 307 303 301 303 298 292 294 298 300 305 305 301 297 294 301
115 112 109 107 110 108 109 111 116 128 143 252 300 311 309 311 316 358 331 323 314 309 309 304 303 309 313 310 306 306 311 305 305 300 297 300 304 307 301 295 296 291 290
107 104 103 104 105 103 102 102 108 108 321 310 306 307 9 344 19 349 337 325 314 307 305 304 321 328 317 313 309 307 307 307 306 301 298 300 299 305 307 307 300 301 295
105 102 102 102 98 97 96 92 81 30 4 339 9 16 23 42 342 335 333 322 311 305 307 318 333 322 333 319 313 312 301 290 292 294 296 297 301 305 308 305 305 301 297
101 98 97 95 91 89 84 72 49 39 24 36 40 32 36 34 349 333 327 319 311 310 313 340 325 323 329 331 321 321 321 324 317 308 305 308 311 311 309 304 297 290 288
92 89 86 85 82 79 74 66 59 56 51 37 28 10 35 20 351 337 340 335 318 341 342 330 324 332 334 336 330 329 333 332 339 327 315 308 306 305 302 296 291 285 284
85 81 82 82 73 65 63 57 44 37 45 25 20 23 36 19 353 349 353 346 343 343 335 327 331 348 333 335 337 335 337 334 332 331 327 322 318 317 314 318 300 294 287
82 84 77 74 72 64 57 51 40 34 34 18 23 45 30 15 355 3 6 357 348 338 337 339 333 345 337 341 341 340 342 336 332 334 335 335 333 327 328 326 330 325 290
91 87 84 84 78 73 66 56 52 46 39 35 30 20 34 15 1 5 16 7 350 335 335 338 339 341 343 345 347 344 340 341 342 341 337 337 341 339 334 327 320 312 303
97 94 89 80 75 78 71 67 53 31 50 65 54 97 14 1 354 357 7 5 356 339 335 333 330 347 347 337 341 331 336 343 345 346 345 343 343 337 331 326 324 321 310
98 96 93 89 88 79 65 46 37 22 15 17 6 9 11 4 359 353 355 360 350 349 328 337 355 353 350 353 353 355 348 345 344 346 347 341 335 328 324 324 325 324 315
102 100 91 81 80 57 55 61 44 30 23 30 16 11 7 5 358 355 355 354 353 350 344 334 330 347 347 353 355 2 356 355 348 347 345 335 332 333 331 331 327 327 322
98 93 101 90 83 107 77 61 68 55 51 42 27 20 17 7 357 5 359 352 351 344 341 6 11 6 5 3 3 3 1 356 353 347 343 338 334 333 332 332 326 321 314
101 83 55 77 77 68 125 103 81 72 59 51 47 48 32 23 24 21 12 9 14 10 18 20 17 9 9 4 2 1 0 356 352 348 347 339 334 333 331 330 326 322 315
83 93 90 72 70 66 60 48 119 106 79 60 41 34 35 29 31 26 19 23 24 22 25 20 15 11 8 5 2 1 357 354 349 348 348 339 337 336 335 331 328 325 320
89 67 75 62 61 64 61 55 51 41 48 78 44 26 18 19 29 26 19 24 24 25 23 19 13 8 7 3 0 359 355 352 350 348 346 339 339 339 336 334 330 324 320
79 68 75 76 67 63 63 57 47 43 39 37 28 16 11 15 26 26 22 23 19 19 15 13 11 7 5 2 360 358 355 353 351 348 343 339 339 339 338 336 330 325 320
79 63 66 73 69 63 56 51 46 39 34 27 37 18 12 16 22 22 20 18 17 16 12 8 8 6 4 2 0 358 355 355 351 348 343 340 340 341 342 338 337 333 331
88 79 70 67 60 55 51 45 39 34 29 29 33 25 10 2 21 17 17 13 13 10 9 6 5 5 4 1 0 358 356 354 350 345 344 339 337 342 346 343 340 340 337
76 71 67 65 61 53 42 41 34 31 29 25 21 21 19 22 18 16 14 10 9 7 6 3 2 4 3 0 4 358 357 353 348 344 343 338 339 344 346 347 345 344 342
76 74 68 63 61 54 48 41 34 24 22 25 20 18 16 15 13 13 10 7 5 3 4 3 2 2 1 360 4 1 358 351 343 342 339 335 338 347 348 348 347 346 346
74 68 65 63 49 47 28 34 32 35 18 18 18 15 13 10 9 7 6 4 1 0 1 0 1 359 358 359 1 359 353 351 349 342 342 334 341 349 348 345 347 345 345
64 60 56 50 41 33 33 28 25 17 16 15 12 9 6 5 5 2 2 360 357 357 357 357 357 356 356 358 357 355 350 355 357 357 345 343 349 351 350 347 350 349 349
71 63 56 48 41 34 27 19 15 16 7 7 4 4 359 0 360 355 358 355 353 353 352 353 352 353 353 355 352 352 350 357 359 6 2 353 354 353 352 352 352 352 349